Location: Los Gatos B&B
(42.6926°N, 77.0646°W)
Time: 15:55:47
(UTC-04:00)

Cosmos 2263 Rocket - Visible Passes

Search period start: 31 October 2014 00:00
Search period end: 09 November 2014 23:00
Orbit: 825 x 848 km, 71.0° (Epoch: 31 October)

Date Brightness Start Highest point End Pass type
(mag) Time Alt. Az. Time Alt. Az. Time Alt. Az.
31 Oct 4.6 05:55:11 10° SSE 05:59:29 24° ESE 06:03:47 10° NE visible
01 Nov 4.7 05:38:48 10° SSE 05:42:54 22° E 05:47:01 10° NE visible
02 Nov 4.7 04:22:26 10° SE 04:26:20 20° E 04:30:14 10° NE visible
02 Nov 2.2 06:04:17 10° SW 06:09:44 58° WNW 06:15:15 10° NNE visible
03 Nov 4.8 04:06:06 10° SE 04:09:45 18° E 04:13:25 10° ENE visible
03 Nov 2.2 05:47:37 10° SW 05:53:06 63° WNW 05:58:38 10° NNE visible
04 Nov 4.8 03:49:49 10° SE 03:53:11 17° E 03:56:34 10° ENE visible
04 Nov 2.1 05:30:57 10° SSW 05:36:28 69° WNW 05:42:02 10° NNE visible
05 Nov 4.8 03:33:34 10° SE 03:36:37 15° E 03:39:41 10° ENE visible
05 Nov 2.0 05:14:18 10° SSW 05:19:50 74° WNW 05:25:25 10° NNE visible
06 Nov 4.9 03:17:22 10° SE 03:20:04 14° E 03:22:45 10° ENE visible
06 Nov 2.0 04:57:39 10° SSW 05:03:12 80° WNW 05:08:48 10° NNE visible
07 Nov 4.9 03:01:33 11° ESE 03:03:30 13° E 03:05:44 10° ENE visible
07 Nov 2.0 04:43:23 27° SSW 04:46:35 86° WNW 04:52:11 10° NNE visible
08 Nov 5.0 02:47:00 11° E 02:47:00 11° E 02:48:34 10° ENE visible
08 Nov 2.0 04:28:48 58° SSW 04:29:57 87° ESE 04:35:33 10° NNE visible
08 Nov 3.6 06:11:12 10° W 06:14:40 17° NW 06:18:10 10° N visible
09 Nov 2.2 04:13:49 74° NE 04:13:49 74° NE 04:18:56 10° NNE visible
09 Nov 3.6 05:55:35 14° WNW 05:57:59 18° NW 06:01:41 10° N visible
